This is the latest recevied weather packets stored in our database for station/object N5PRN. If no packets are shown the sender has not sent any weather packets the latest 10 day(s).
| Time | Temp. | Humidity | Pressure | Rain* | Wind** | Luminosity | Snow |
|---|---|---|---|---|---|---|---|
| 1778068928 | 22.78° C | 99% | 1011.1 hPa | 0 mm | - | 6 W/m² | - |
| 1778068626 | 22.78° C | 99% | 1011.1 hPa | 0 mm | - | 7 W/m² | - |
| 1778068324 | 22.78° C | 99% | 1010.7 hPa | 0 mm | - | 6 W/m² | - |
| 1778068021 | 22.78° C | 99% | 1010.8 hPa | 0 mm | - | 3 W/m² | - |
| 1778067718 | 22.78° C | 99% | 1010.7 hPa | 0 mm | - | 6 W/m² | - |
| 1778067417 | 22.78° C | 99% | 1010.7 hPa | 0 mm | - | 2 W/m² | - |
| 1778067114 | 22.78° C | 99% | 1010.6 hPa | 0 mm | - | 1 W/m² | - |
| 1778066810 | 22.22° C | 99% | 1010.3 hPa | 0 mm | - | 0 W/m² | - |
| 1778066508 | 22.22° C | 99% | 1010.2 hPa | 0 mm | - | 0 W/m² | - |
| 1778066205 | 22.22° C | 99% | 1010 hPa | 0 mm | - | 0 W/m² | - |
| 1778065903 | 22.22° C | 99% | 1010.4 hPa | 0 mm | - | 0 W/m² | - |
| 1778065600 | 22.22° C | 99% | 1010 hPa | 0 mm | - | 0 W/m² | - |
| 1778065297 | 22.22° C | 99% | 1010.1 hPa | 0 mm | - | 0 W/m² | - |
| 1778064994 | 22.22° C | 99% | 1010.1 hPa | 0 mm | - | 0 W/m² | - |
| 1778064691 | 22.22° C | 99% | 1010.1 hPa | 0 mm | - | 0 W/m² | - |
| 1778064389 | 22.22° C | 99% | 1010 hPa | 0 mm | - | 0 W/m² | - |
| 1778064086 | 22.22° C | 99% | 1009.8 hPa | 0 mm | - | 0 W/m² | - |
| 1778063783 | 22.22° C | 99% | 1009.9 hPa | 0 mm | - | 0 W/m² | - |
| 1778063480 | 22.22° C | 99% | 1009.7 hPa | 0 mm | - | 0 W/m² | - |
| 1778063179 | 22.22° C | 99% | 1009.6 hPa | 0 mm | - | 0 W/m² | - |
| 1778062876 | 22.22° C | 99% | 1009.6 hPa | 0 mm | - | 0 W/m² | - |
| 1778062572 | 22.22° C | 99% | 1009.6 hPa | 0 mm | - | 0 W/m² | - |
| 1778062269 | 22.22° C | 99% | 1009.8 hPa | 0 mm | - | 0 W/m² | - |
| 1778061968 | 22.22° C | 99% | 1009.5 hPa | 0 mm | - | 0 W/m² | - |
| 1778061665 | 22.22° C | 99% | 1009.6 hPa | 0 mm | - | 0 W/m² | - |
* Rain latest hour (hover to see other rain measurements)
** Current wind speed in m/s (hover to see current wind gust speed)